Location: Korczew
(51.3586°N, 19.4491°E)
Time: 18:11:01
(UTC+00:00)

SAR-Lupe-2 - Pass Details

Date: 19 May 2025
Orbit: 478 x 487 km, 98.1° (Epoch: 16 May)

Event Time Altitude Azimuth Distance (km) Brightness Sun altitude
Exits shadow 19:23:30 - 156° (SSE) 1,862 5.9 -6.9°
Reaches altitude 10° 19:24:00 10° 156° (SSE) 1,653 5.7 -6.9°
Maximum altitude 19:27:31 69° 73° (ENE) 521 3.6 -7.3°
Drops below altitude 10° 19:31:05 10° 350° (N) 1,670 7.3 -7.7°
Sets 19:33:10 0° 348° (NNW) 2,556 8.4 -7.9°
